Overview Statistics Trail Chart Weather Telemetry Raw packets
 

This is the latest recevied weather packets stored in our database for station/object s59zo-6. If no packets are shown the sender has not sent any weather packets the latest 10 day(s).

<< 68 69 70 71 72 73 74 >>
Time Temp. Humidity Pressure Rain* Wind** Luminosity Snow
1788204603 23.33° C 63% 1014.8 hPa 0 mm - - -
1788204303 23.89° C 62% 1014.9 hPa 0 mm - - -
1788204003 23.89° C 62% 1014.7 hPa 0 mm - - -
1788203703 23.89° C 62% 1014.5 hPa 0 mm - - -
1788203403 23.89° C 62% 1014.2 hPa 0 mm - - -
1788203113 23.33° C 62% 1014.3 hPa 0 mm - - -
1788202803 23.89° C 62% 1014.2 hPa 0 mm - - -
1788202503 23.89° C 61% 1014.1 hPa 0 mm - - -
1788202203 24.44° C 61% 1013.9 hPa 0 mm - - -
1788201903 24.44° C 61% 1013.6 hPa 0 mm - - -
1788201604 24.44° C 60% 1013.6 hPa 0 mm - - -
1788201311 25° C 60% 1013.5 hPa 0 mm - - -
1788201003 25° C 60% 1013.4 hPa 0 mm - - -
1788200703 25.56° C 59% 1013.3 hPa 0 mm - - -
1788200403 25.56° C 57% 1013.1 hPa 0 mm - - -
1788200103 26.11° C 56% 1013.3 hPa 0 mm - - -
1788199804 26.11° C 55% 1013.1 hPa 0 mm - - -
1788199503 26.67° C 53% 1013.1 hPa 0 mm - - -
1788199203 26.67° C 53% 1013.2 hPa 0 mm - - -
1788198603 27.22° C 52% 1013.1 hPa 0 mm - - -
1788198303 27.22° C 52% 1013.2 hPa 0 mm - - -
1788198003 27.78° C 48% 1013.1 hPa 0 mm - - -
1788197702 27.78° C 47% 1013.1 hPa 0 mm - - -
1788197403 28.33° C 47% 1013.1 hPa 0 mm - - -
1788197104 28.89° C 46% 1013 hPa 0 mm - - -

* Rain latest hour (hover to see other rain measurements)
** Current wind speed in m/s (hover to see current wind gust speed)